Regional Weather Roundup
Issued by NWS

Home | Current Version | Previous Version | Text Only | Print | Product List | Glossary On
Versions: 1 2 3 4 5 6 7 8 9 10 11 12 13 14 15 16 17 18 19 20 21 22 23 24 25 26 27 28 29 30 31 32 33 34 35 36 37 38 39 40 41 42 43 44 45 46 47 48 49 50
000
ASUS45 KREV 081010
RWRNV
NEVADA REGIONAL WEATHER ROUNDUP
NATIONAL WEATHER SERVICE RENO NV
200 AM PST MON FEB 08 2016

NOTE: "FAIR" INDICATES FEW OR NO CLOUDS BELOW 12,000 FEET WITH NO
SIGNIFICANT WEATHER AND/OR OBSTRUCTIONS TO VISIBILITY.

NVZ001-003-004-081100-
WESTERN NEVADA

CITY           SKY/WX    TMP DP  RH WIND       PRES   REMARKS
RENO           CLEAR     32  26  78 CALM      30.60S
CARSON CITY    FAIR      28  27  93 CALM      30.61S
MINDEN         FAIR      28  28 100 CALM      30.62S
PYRAMID LAKE     N/A     43 N/A N/A S6          N/A
FALLON         CLEAR     29  27  92 S8        30.60F
LOVELOCK       CLEAR     27  24  89 SE7       30.61R
HAWTHORNE      CLEAR     32  30  93 CALM      30.63S
$$

NVZ002-CAZ072-073-081100-
NORTHERN AND CENTRAL SIERRA

CITY           SKY/WX    TMP DP  RH WIND       PRES   REMARKS
S. LAKE TAHOE  CLEAR     24  21  88 CALM      30.53F
TRUCKEE        CLEAR     23  21  93 CALM      30.56S
SQUAW VLY 8000   N/A     32  27  80 E3          N/A
SUSANVILLE     CLEAR     32  30  93 W3        30.58F
BLUE CANYON    CLEAR     52  22  30 VRB7G22   30.42S
MAMMOTH LAKES  FAIR      25  19  80 N3        30.58F
BRIDGEPORT     FAIR      22  18  85 CALM      30.57S
$$

NVZ030-031-036-081100-
NORTHERN NEVADA

CITY           SKY/WX    TMP DP  RH WIND       PRES   REMARKS
ELKO           MOCLDY    11   6  81 E5        30.67S
WINNEMUCCA     CLEAR     29  26  89 NE8       30.61F
WENDOVER       PTCLDY    25  19  80 CALM      30.67R
$$

NVZ035-037-081100-
CENTRAL NEVADA

CITY           SKY/WX    TMP DP  RH WIND       PRES   REMARKS
ELY            PTCLDY     8   5  87 S12       30.64R WCI  -7
EUREKA           N/A      1  32 100 SW9       30.63F
$$

NVZ013-014-081100-
SOUTH CENTRAL NEVADA

CITY           SKY/WX    TMP DP  RH WIND       PRES   REMARKS
TONOPAH        PTCLDY    28  21  75 N14       30.58S
$$

NVZ017-020-022-081100-
SOUTHERN NEVADA

CITY           SKY/WX    TMP DP  RH WIND       PRES   REMARKS
LAS VEGAS      CLEAR     54  22  28 NE10      30.40R
N. LAS VEGAS   CLEAR     54  22  28 N13       30.42R
NELLIS AFB     CLEAR     54  23  29 N9        30.44R
HENDERSON      CLEAR     50  23  34 NE3       30.46R
MERCURY        CLEAR     46  24  42 NE15      30.46S
$$



USA.gov is the U.S. government's official web portal to all federal, state and local government web resources and services.